Weather History for Rush City, MN

Change the Weather History Date:

Saturday, November 19, 2011

  Actual Average (KCBG) Record (KCBG)
Temperature  
Mean Temperature 26 °F -  
Max Temperature 30 °F 36 °F 57 °F (2012)
Min Temperature 23 °F 21 °F 3 °F (1997)
Degree Days  
Heating Degree Days 38    
Moisture  
Dew Point 23 °F    
Average Humidity 85    
Maximum Humidity 93    
Minimum Humidity 74    
Precipitation  
Precipitation 0.00 in - - ()
Sea Level Pressure  
Sea Level Pressure 29.83 in    
Wind  
Wind Speed 7 mph (North)    
Max Wind Speed 17 mph    
Max Gust Speed 24 mph    
Visibility 8 miles    
Events Snow    
Averages and records for this station are not official NWS values.
T = Trace of Precipitation, MM = Missing Value Source: NWS Daily Summary

Daily Weather History Graph

Daily Weather History Graph

Search for Another Location

Airport:

Trip Planner

Search our weather history database for the weather conditions in past years. The results will help you decide how hot, cold, wet, or windy it might be!

Date:

Astronomy

Nov. 19, 2011 Rise Set
Actual Time 7:16 AM CST 4:37 PM CST
Civil Twilight 6:43 AM CST 5:09 PM CST
Nautical Twilight 6:07 AM CST 5:46 PM CST
Astronomical Twilight 5:32 AM CST 6:21 PM CST
Moon 12:18 AM CST (11/19) 1:12 PM CST (11/19)
Length of Visible Light 10h 25m
Length of Day
9h 20m
Last Quarter, 38% of the Moon is Illuminated
Nov 19
Last Quarter
Nov 25
New
Dec 2
First Quarter
Dec 10
Full
Dec 17
Last Quarter

Hourly Weather History & Observations

Time (CST) Temp. Windchill Dew Point Humidity Pressure Visibility Wind Dir Wind Speed Gust Speed Precip Events Conditions
12:14 AM 28.8 °F 23.7 °F 25.5 °F 88% 29.74 in 10.0 mi NNW 4.6 mph - N/A   Clear
12:34 AM 28.4 °F 22.2 °F 25.2 °F 88% 29.73 in 10.0 mi North 5.8 mph - N/A   Clear
12:54 AM 28.0 °F 24.2 °F 25.0 °F 88% 29.72 in 10.0 mi North 3.5 mph - N/A   Clear
1:14 AM 27.5 °F - 24.8 °F 90% 29.72 in 10.0 mi Calm Calm - N/A   Clear
1:34 AM 28.4 °F - 25.7 °F 90% 29.74 in 10.0 mi Calm Calm - N/A   Clear
1:54 AM 28.9 °F - 25.9 °F 88% 29.74 in 10.0 mi Calm Calm - N/A   Scattered Clouds
2:14 AM 29.5 °F - 26.4 °F 88% 29.76 in 10.0 mi Calm Calm - N/A   Overcast
2:34 AM 30.2 °F - 26.8 °F 87% 29.78 in 10.0 mi Calm Calm - N/A   Overcast
2:54 AM 30.2 °F - 27.0 °F 88% 29.78 in 10.0 mi Calm Calm - N/A   Overcast
3:15 AM 30.0 °F - 27.1 °F 89% 29.78 in 10.0 mi Calm Calm - N/A   Overcast
3:34 AM 30.2 °F - 27.0 °F 88% 29.78 in 10.0 mi Calm Calm - N/A   Overcast
3:54 AM 30.0 °F - 26.6 °F 87% 29.78 in 10.0 mi Calm Calm - N/A   Overcast
4:14 AM 30.7 °F 24.9 °F 27.1 °F 86% 29.77 in 10.0 mi NNW 5.8 mph - N/A   Overcast
4:34 AM 30.7 °F 22.0 °F 26.6 °F 85% 29.80 in 10.0 mi NNW 10.4 mph - N/A   Overcast
4:54 AM 30.9 °F 23.5 °F 26.4 °F 83% 29.81 in 10.0 mi NNW 8.1 mph - N/A   Overcast
5:14 AM 30.7 °F 22.6 °F 25.7 °F 82% 29.81 in 10.0 mi North 9.2 mph - N/A   Overcast
5:34 AM 30.6 °F 21.8 °F 25.5 °F 82% 29.79 in 10.0 mi North 10.4 mph - N/A   Overcast
5:54 AM 30.2 °F 20.8 °F 25.2 °F 82% 29.76 in 10.0 mi North 11.5 mph - N/A   Overcast
6:14 AM 29.7 °F 18.2 °F 24.4 °F 81% 29.76 in 10.0 mi North 16.1 mph 19.6 mph N/A   Overcast
6:54 AM 29.1 °F 20.6 °F 23.4 °F 79% 29.78 in 10.0 mi NNE 9.2 mph - N/A   Overcast
7:14 AM 29.1 °F 21.3 °F 23.0 °F 78% 29.81 in 10.0 mi NNE 8.1 mph - N/A   Overcast
7:34 AM 29.1 °F 19.4 °F 23.0 °F 78% 29.82 in 10.0 mi North 11.5 mph - N/A   Overcast
7:54 AM 29.1 °F 20.6 °F 23.0 °F 78% 29.83 in 10.0 mi North 9.2 mph - N/A   Overcast
8:14 AM 28.9 °F 18.6 °F 22.6 °F 77% 29.83 in 10.0 mi North 12.7 mph - N/A   Overcast
8:34 AM 28.6 °F 18.2 °F 21.9 °F 76% 29.83 in 10.0 mi North 12.7 mph - N/A   Overcast
8:55 AM 28.2 °F 16.8 °F 21.2 °F 75% 29.83 in 10.0 mi North 15.0 mph 19.6 mph N/A   Overcast
9:14 AM 27.9 °F 18.4 °F 21.2 °F 76% 29.83 in 10.0 mi North 10.4 mph - N/A   Overcast
9:34 AM 28.2 °F 19.5 °F 21.2 °F 75% 29.83 in 10.0 mi North 9.2 mph 17.3 mph N/A   Overcast
9:54 AM 28.4 °F 18.5 °F 21.0 °F 74% 29.83 in 10.0 mi NNE 11.5 mph 16.1 mph N/A   Overcast
10:14 AM 28.4 °F 19.1 °F 21.0 °F 74% 29.85 in 10.0 mi North 10.4 mph 16.1 mph N/A   Overcast
10:54 AM 28.4 °F 17.5 °F 21.2 °F 74% 29.82 in 10.0 mi North 13.8 mph 24.2 mph N/A   Overcast
11:14 AM 28.0 °F 18.1 °F 21.6 °F 77% 29.82 in 10.0 mi NNE 11.5 mph 23.0 mph N/A   Overcast
11:34 AM 27.7 °F 17.1 °F 22.1 °F 80% 29.81 in 10.0 mi North 12.7 mph 18.4 mph N/A   Overcast
11:54 AM 27.3 °F 14.8 °F 22.6 °F 83% 29.82 in 10.0 mi North 17.3 mph 21.9 mph N/A   Overcast
12:13 PM 27.1 °F 18.9 °F 23.0 °F 84% 29.81 in 7.0 mi NNE 8.1 mph 18.4 mph N/A   Overcast
12:34 PM 26.6 °F 15.7 °F 23.7 °F 89% 29.81 in 3.0 mi North 12.7 mph - N/A   Overcast
12:54 PM 26.4 °F 15.5 °F 23.2 °F 88% 29.80 in 4.0 mi North 12.7 mph 18.4 mph N/A Snow Light Snow
1:34 PM 26.2 °F 15.8 °F 23.5 °F 90% 29.80 in 7.0 mi North 11.5 mph - N/A   Overcast
1:54 PM 26.1 °F 20.5 °F 23.5 °F 90% 29.83 in 3.0 mi North 4.6 mph - N/A   Overcast
2:14 PM 26.1 °F 19.4 °F 23.9 °F 92% 29.82 in 2.5 mi North 5.8 mph - N/A   Overcast
2:34 PM 25.7 °F 17.1 °F 23.9 °F 93% 29.81 in 2.0 mi North 8.1 mph - N/A   Overcast
2:54 PM 25.7 °F 15.1 °F 23.9 °F 93% 29.82 in 2.5 mi North 11.5 mph - N/A   Overcast
3:14 PM 25.7 °F 15.1 °F 23.7 °F 92% 29.83 in 4.0 mi North 11.5 mph 17.3 mph N/A   Overcast
3:34 PM 25.7 °F 15.1 °F 23.7 °F 92% 29.85 in 4.0 mi North 11.5 mph - N/A Snow Light Snow
3:54 PM 25.7 °F 16.4 °F 23.7 °F 92% 29.85 in 3.0 mi North 9.2 mph - N/A Snow Light Snow
4:14 PM 25.7 °F 15.1 °F 23.9 °F 93% 29.87 in 4.0 mi North 11.5 mph - N/A Snow Light Snow
4:34 PM 25.7 °F 16.4 °F 23.7 °F 92% 29.88 in 4.0 mi North 9.2 mph - N/A Snow Light Snow
4:54 PM 25.7 °F 15.1 °F 23.5 °F 92% 29.89 in 5.0 mi North 11.5 mph - N/A Snow Light Snow
5:14 PM 25.2 °F 13.9 °F 23.0 °F 91% 29.89 in 4.0 mi North 12.7 mph 21.9 mph N/A Snow Light Snow
5:34 PM 24.8 °F 16.1 °F 22.8 °F 92% 29.91 in 5.0 mi North 8.1 mph - N/A   Overcast
6:14 PM 24.3 °F 12.2 °F 21.6 °F 89% 29.92 in 7.0 mi North 13.8 mph 19.6 mph N/A   Overcast
6:34 PM 24.3 °F 14.6 °F 21.6 °F 89% 29.93 in 10.0 mi North 9.2 mph - N/A   Overcast
6:55 PM 23.9 °F 12.9 °F 21.0 °F 89% 29.96 in 10.0 mi North 11.5 mph 16.1 mph N/A   Overcast
7:14 PM 23.9 °F 14.2 °F 20.7 °F 87% 29.96 in 10.0 mi North 9.2 mph 16.1 mph N/A   Overcast
7:34 PM 23.9 °F 12.9 °F 19.8 °F 84% 29.98 in 10.0 mi North 11.5 mph 18.4 mph N/A   Overcast
7:54 PM 23.9 °F 13.5 °F 19.0 °F 82% 30.00 in 10.0 mi NNW 10.4 mph 19.6 mph N/A   Overcast
8:14 PM 23.5 °F 14.5 °F 18.5 °F 81% 30.01 in 10.0 mi NNW 8.1 mph - N/A   Overcast
8:34 PM 23.4 °F 13.5 °F 18.0 °F 80% 30.02 in 10.0 mi NNW 9.2 mph 19.6 mph N/A   Overcast
8:55 PM 22.8 °F 10.9 °F 17.2 °F 79% 30.03 in 10.0 mi North 12.7 mph 19.6 mph N/A   Overcast
9:14 PM 22.6 °F 11.3 °F 16.7 °F 78% 30.04 in 10.0 mi North 11.5 mph 19.6 mph N/A   Overcast
9:34 PM 22.5 °F 12.4 °F 16.5 °F 78% 30.06 in 10.0 mi North 9.2 mph - N/A   Overcast
9:53 PM 22.3 °F 12.2 °F 16.3 °F 78% 30.08 in 10.0 mi NNW 9.2 mph - N/A   Overcast
10:14 PM 22.1 °F 10.0 °F 16.5 °F 79% 30.08 in 10.0 mi North 12.7 mph - N/A   Overcast
10:34 PM 21.9 °F 13.4 °F 16.3 °F 79% 30.10 in 10.0 mi NNW 6.9 mph - N/A   Overcast
10:54 PM 21.9 °F 15.7 °F 16.3 °F 79% 30.12 in 10.0 mi NW 4.6 mph - N/A   Overcast
11:14 PM 21.4 °F 11.9 °F 15.6 °F 78% 30.13 in 10.0 mi NNW 8.1 mph - N/A   Overcast
11:33 PM 20.8 °F 10.4 °F 14.7 °F 77% 30.13 in 10.0 mi NNW 9.2 mph - N/A   Overcast